Home > Time Zones > World Clock > Weather > Nigeria > Uyo > Past weeks

Flag for Nigeria Weather past 2 weeks in Uyo, Nigeria

Now
81 °F

Broken clouds.


Feels Like: 85 °F
Forecast: 73 / 81 °F
Wind: 14 mph from Southwest

Location: Malabo/Fernando Poo

Current Time: Aug 31, 2015 at 12:51:39 PM

Latest Report: Aug 31, 2015 at 12:00 PM


Visibility: N/A

Pressure: 30.01 "Hg

Humidity: 79%

Dew point: 73 °F

Location of UyoLocation

Historic Weather in Uyo — Graph

°F

Uyo temperature yesterday

Maximum temperature yesterday: 79 °F (at 4:00 PM)
Minimum temperature yesterday: 75 °F (at 12:00 AM)
Average temperature yesterday: 76 °F

Past Weeks' High & Low Weather Summary

 TemperatureHumidityPressure
High84 °F (Aug 28, 12:00 PM)100% (Aug 17, 5:00 AM)30.07 "Hg (Aug 17, 5:00 AM)
Low73 °F (Aug 17, 4:00 AM)70% (Aug 28, 1:00 PM)29.86 "Hg (Aug 18, 5:00 PM)
Average77 °F87%29.94 "Hg
* Reported Aug 16 11:00 AM — Aug 31 11:00 AM, Uyo, Weather by CustomWeather, © 2015

Note: Actual official high and low records may vary slightly from our data, if they occured in-between our weather recording intervals... More about our weather records

Advertising

Uyo weather history for previous 24 hours

 ConditionsComfort  
Time TempWeatherWind HumidityBarometerVisibility
11:00 AM
Mon, Aug 31
82 °FBroken clouds.9 mph74%30.01 "HgN/A
10:00 AM81 °FBroken clouds.12 mph79%30.01 "HgN/A
9:00 AM81 °FBroken clouds.12 mph79%30.01 "HgN/A
8:00 AM77 °FPartly sunny.7 mph83%30.01 "HgN/A
7:00 AM75 °FBroken clouds.3 mph89%29.98 "HgN/A
5:00 AM75 °FPassing clouds.12 mph83%29.95 "HgN/A
4:00 AM75 °FPassing clouds.9 mph83%29.95 "HgN/A
2:00 AM75 °FPassing clouds.No wind83%29.98 "HgN/A
12:00 AM73 °FPartly cloudy.6 mph89%30.01 "HgN/A
11:00 PM
Sun, Aug 30
75 °FPassing clouds.8 mph89%30.04 "HgN/A
10:00 PM75 °FPassing clouds.No wind89%30.01 "Hg5 mi
9:00 PM75 °FPassing clouds.No wind89%30.01 "Hg5 mi
8:00 PM75 °FPartly cloudy.No wind89%29.98 "Hg5 mi
7:00 PM75 °FPartly cloudy.No wind94%29.95 "Hg5 mi
6:00 PM77 °FDrizzle. Broken clouds.No wind89%29.95 "Hg4 mi
5:00 PM79 °FBroken clouds.3 mph84%29.95 "Hg5 mi
4:00 PM79 °FBroken clouds.3 mph84%29.95 "Hg5 mi
3:00 PM77 °FPartly sunny.7 mph89%29.98 "Hg5 mi
2:00 PM77 °FPartly sunny.8 mph89%29.98 "Hg5 mi
1:00 PM75 °FDrizzle. Mostly cloudy.No wind94%30.01 "Hg2 mi
12:00 PM77 °FDrizzle. Mostly cloudy.3 mph89%30.07 "Hg3 mi
Weather by CustomWeather, © 2015

See weather overviewHow to use our weather pages